JAM-E JAM 1

Last updated on Sun Apr 12 2026 00:02:57 GMT+0000 (Coordinated Universal Time)

1 67757U 26028B 26101.24216921 .00000157 00000+0 00000+0 0 9998 2 67757 0.4153 289.1748 0002007 133.9255 257.4083 1.00272838 452
UTC large
Height (km)
Speed (km/s)
/
Latitude / Longitude
Inclination (degrees)
Orbital Period (minutes)
Azimuth
Elevation
Range (km)
Doppler Factor

Next 0 passes for location: London (51.5072 / 0.1276)

Sorry there are no passes over London.